AirNav   Textron
 
 358 users online  

8NY9 Nassau County Police Heliport
Bethpage, New York, USA

GOING TO BETHPAGE?


FAA INFORMATION EFFECTIVE 07 DECEMBER 2017

Location

FAA Identifier: 8NY9
Lat/Long: 40-44-45.3580N / 073-29-28.4480W
40-44.755967N / 073-29.474133W
40.7459328 / -73.4912356
(estimated)
Elevation: 132 ft. / 40 m (estimated)
Variation: 13W (1985)
From city: 16 miles NW of BETHPAGE, NY
Time zone: UTC -5 (UTC -4 during Daylight Saving Time)
Zip code: 11714

Heliport Operations

Heliport use: Private use. Permission required prior to landing
Activation date: 11/1941
Control tower: no
ARTCC: NEW YORK CENTER
FSS: NEW YORK FLIGHT SERVICE STATION
Attendance: 0730-2320
Pattern altitude: OVERHEAD PATTERN NOT AUTHORIZED.
Wind indicator: yes
Segmented circle: no
Lights: ACTVT PERIMETER LGTS RY H1 DUSK-2320 - 123.0.
Beacon: white-green-yellow (heliport)
24 HRS

Heliport Communications

UNICOM: 123.0
NEW YORK DEPARTURE: 123.9
WX ASOS at FRG (4 nm E): PHONE 631-752-8129
WX ASOS at JFK (15 nm SW): PHONE 718-656-0956
WX ASOS at LGA (17 nm W): PHONE 718-672-6317
WX ASOS at ISP (18 nm E): PHONE 631-471-0131

Nearby radio navigation aids

VOR radial/distance  VOR name  Freq  Var
DPKr264/9.0DEER PARK VOR/DME117.7012W
JFKr074/14.4KENNEDY VOR/DME115.9012W
LGAr110/17.3LA GUARDIA VOR/DME113.1012W
CRIr077/20.0CANARSIE VOR/DME112.3011W
TEBr114/26.7TETERBORO VOR/DME108.4011W
BDRr226/29.9BRIDGEPORT VOR/DME108.8012W
CMKr185/32.3CARMEL VOR/DME116.6012W
CCCr264/33.3CALVERTON VOR/DME117.2013W

 
NDB name  Hdg/Dist  Freq  Var  ID
FRIKK206/1.940714WFR ..-. .-.
BABYLON326/6.627514WBBN -... -... -.
LOKKS288/13.736614WIS .. ...
BRIDGE071/20.841412WOGY --- --. -.--

Heliport Services

Parking: hangars
Airframe service: NONE
Powerplant service: NONE

Runway Information

Helipad H1

Dimensions: 50 x 50 ft. / 15 x 15 m
Surface: concrete
Runway edge lights: PERI
Traffic pattern: leftleft
Markings: basic, in good condition

Heliport Ownership and Management from official FAA records

Ownership: Publicly-owned
Owner: NASSAU COUNTY POLICE DEPT
1490 FRANKLIN AVE
MINEOLA, NY 11501
Phone 516-573-7000
Manager: JOHN CONTI
101 GRUMMAN RD WEST
BETHPAGE, NY 11714
Phone 516-573-4000
CHIEF PILOT: DENNIS ANGEMAIER.

Heliport Operational Statistics

Aircraft based on the field: 4
Helicopters: 4
    

Instrument Procedures

There are no published instrument procedures at 8NY9.

Some nearby airports with instrument procedures:

KFRG - Republic Airport (4 nm E)
KJFK - John F Kennedy International Airport (15 nm SW)
KLGA - LaGuardia Airport (17 nm W)
KISP - Long Island Mac Arthur Airport (18 nm E)
KHPN - Westchester County Airport (22 nm NW)
 
Loc | Ops | Rwys | IFR | FBO | Links
Com | Nav | Svcs | Stats | Notes


 
Area around 8NY9 (Nassau County Police Heliport)
 
Road maps at: MapQuest Bing Google
 
Aerial photo
No photo
 
Sectional chart

 
Airport distance calculator
Flying to Nassau County Police Heliport? Find the distance to fly.

From to 8NY9

Sunrise and sunset
Times for 16-Dec-2017
 Local
(UTC-5)
 Zulu
(UTC)
Morning civil twilight06:4211:42
Sunrise07:1312:13
Sunset16:2721:27
Evening civil twilight16:5721:57

Current date and time
Zulu (UTC)  16-Dec-2017 08:24:14
Local (UTC-5)  16-Dec-2017 03:24:14
 
METAR
KFRG 
3nm E 
160753Z AUTO 26008KT 9SM CLR M06/M08 A2994 RMK AO2 SLP139 T10611083
KJFK 
14nm SW 
160751Z 28013KT 10SM FEW250 M04/M07 A2997 RMK AO2 SLP147 T10391072 $
KLGA 
18nm W 
160751Z 27014G22KT 10SM FEW250 M03/M08 A2994 RMK AO2 SLP139 T10281078 $
KISP 
18nm E 
160756Z AUTO 27005KT 8SM CLR M08/M09 A2992 RMK AO2 SLP133 I1000 T10781089
TAF
KJFK 
14nm SW 
160539Z 1606/1712 26012G20KT P6SM SCT250 FM161400 26017G25KT P6SM SCT040 BKN200 FM161600 27018G26KT P6SM VCSH BKN040 BKN120 FM162100 27014KT P6SM BKN040 BKN120 FM170000 31011KT P6SM BKN050 FM170500 34008KT P6SM SCT050
KLGA 
18nm W 
160539Z 1606/1712 26012G20KT P6SM SCT250 FM161400 26017G25KT P6SM SCT040 BKN200 FM161600 27018G26KT P6SM VCSH BKN040 BKN120 FM162100 27014KT P6SM BKN040 BKN120 FM170000 31011KT P6SM BKN050 FM170500 34008KT P6SM SCT050
KISP 
18nm E 
160539Z 1606/1706 28010KT P6SM SCT250 FM161400 26015G23KT P6SM SCT040 BKN200 FM161600 27017G26KT P6SM VCSH BKN040 BKN120 FM162100 27013KT P6SM BKN040 BKN120 FM170000 30010KT P6SM BKN050 FM170400 34006KT P6SM SCT050
NOTAMs
Click for the latest NOTAMs
NOTAMs are issued by the DoD/FAA and will open in a separate window not controlled by AirNav.

 

 
 

Would you like to see your business listed on this page?

 If your business provides an interesting product or service to pilots, flight crews, aircraft, or users of the Nassau County Police Heliport, you should consider listing it here.  To start the listing process, click on the button below
 
Add a business
 

Other Pages about Nassau County Police Heliport

Update a link
 
Copyright © AirNav, LLC. All rights reserved. Privacy Policy  Contact